N5CSU Weather Reports


time (UTC)temp
F
wind
direction
speed
knots
gust
knots
rain 1hr
in
rain 24hr
in
rain mn
in
humidity
%
barometer
mb
20260506195442 60 187 0.0 0.0 0.00 0.00 0.00 80 1014.9
20260506194938 60 187 0.0 0.0 0.00 0.00 0.00 82 1014.7
20260506194436 60 199 0.0 0.0 0.00 0.00 0.00 81 1014.3
20260506193932 60 180 0.0 0.0 0.00 0.00 0.00 81 1014.6
20260506193430 59 169 0.0 0.0 0.00 0.00 0.00 83 1014.5
20260506192926 59 196 0.0 0.0 0.00 0.00 0.00 85 1014.5
20260506192423 58 179 0.0 0.0 0.00 0.00 0.00 85 1014.7
20260506191920 58 179 0.0 0.9 0.00 0.00 0.00 85 1015.0
20260506191416 57 195 0.0 0.0 0.00 0.00 0.00 86 1015.4
20260506190914 57 181 0.0 0.0 0.00 0.00 0.00 87 1015.4
20260506190410 57 187 0.0 0.0 0.00 0.00 0.00 86 1015.2
20260506185907 57 178 0.0 0.0 0.00 0.00 0.00 86 1015.0
20260506185404 57 169 0.0 0.0 0.00 0.00 0.00 86 1014.7
20260506184901 57 174 0.0 0.0 0.00 0.00 0.00 86 1014.8
20260506184358 57 171 0.0 0.0 0.00 0.00 0.00 86 1014.9
20260506183855 57 183 0.0 0.0 0.00 0.00 0.00 87 1015.0
20260506183350 57 160 0.0 0.0 0.00 0.00 0.00 85 1014.5
20260506182848 57 186 0.0 0.0 0.00 0.00 0.00 87 1014.8
20260506182345 57 192 0.0 0.0 0.00 0.00 0.00 86 1014.7
20260506181842 57 189 0.0 0.0 0.00 0.00 0.00 87 1014.2
20260506181340 57 185 0.0 0.0 0.00 0.00 0.00 86 1013.6
20260506180837 57 176 0.0 0.0 0.00 0.00 0.00 87 1013.5
20260506180333 57 199 0.0 0.9 0.00 0.00 0.00 88 1013.3
20260506175829 57 191 0.0 0.0 0.00 0.00 0.00 89 1013.4
20260506175326 57 205 0.0 0.0 0.00 0.00 0.00 88 1013.3
20260506174823 56 173 0.0 0.0 0.00 0.00 0.00 88 1013.7
20260506174321 56 187 0.0 0.0 0.00 0.00 0.00 89 1014.0
20260506173818 56 192 0.0 0.0 0.00 0.00 0.00 89 1014.3
20260506173315 56 118 0.0 1.7 0.00 0.00 0.00 90 1014.0
20260506172812 56 177 0.0 0.0 0.00 0.00 0.00 91 1014.4
20260506172308 56 216 0.0 0.0 0.00 0.00 0.00 90 1014.7
20260506171806 55 173 0.0 0.0 0.00 0.00 0.00 90 1015.0
20260506171303 55 188 0.0 0.0 0.00 0.00 0.00 92 1015.0
20260506170801 55 187 0.0 0.0 0.00 0.00 0.00 91 1014.7
20260506170257 55 183 0.0 0.0 0.00 0.00 0.00 92 1015.1
20260506165755 55 177 0.0 0.0 0.00 0.00 0.00 91 1014.8
20260506165252 55 189 0.0 0.0 0.00 0.00 0.00 90 1014.3
20260506164749 55 203 0.0 0.0 0.00 0.00 0.00 90 1014.0
20260506164246 56 199 0.0 0.0 0.00 0.00 0.00 90 1014.6
20260506163743 56 103 0.0 0.0 0.00 0.00 0.00 90 1014.5
20260506163238 56 192 0.0 0.0 0.00 0.00 0.00 90 1014.4
20260506162734 57 194 0.0 0.0 0.00 0.00 0.00 90 1014.6
20260506162232 56 184 0.0 0.0 0.00 0.00 0.00 90 1014.9
20260506161729 56 169 0.0 0.0 0.00 0.00 0.00 91 1014.8
20260506161226 55 181 0.0 0.0 0.00 0.00 0.00 92 1015.0
20260506160724 55 14 0.0 0.0 0.00 0.00 0.00 92 1015.1
20260506160220 55 138 0.0 0.0 0.00 0.00 0.00 92 1015.1
20260506155719 55 168 0.0 0.0 0.00 0.00 0.00 92 1015.2
20260506155216 54 183 0.0 0.0 0.00 0.00 0.00 93 1015.1
20260506153324 55 181 0.0 0.0 0.00 0.00 0.00 91 1014.8
20260506152821 55 98 0.9 0.9 0.00 0.00 0.00 89 1014.8
20260506152318 55 206 0.0 0.0 0.00 0.00 0.00 85 1015.9
20260506151817 55 189 0.0 0.0 0.00 0.00 0.00 85 1016.4
20260506151313 56 176 0.9 0.9 0.00 0.00 0.00 85 1016.4
20260506150810 56 188 0.0 0.0 0.00 0.00 0.00 85 1015.9
20260506150307 56 188 0.0 0.0 0.00 0.00 0.00 85 1015.6
20260506145804 56 189 0.0 0.0 0.00 0.00 0.00 85 1015.2
20260506145300 55 192 0.0 0.0 0.00 0.00 0.00 86 1015.0
20260506144758 55 192 0.0 0.0 0.00 0.00 0.00 85 1015.1
20260506144254 55 177 0.9 0.9 0.00 0.00 0.00 84 1014.3
20260506143752 55 186 0.0 0.0 0.00 0.00 0.00 85 1014.7
20260506143249 55 179 0.0 0.0 0.00 0.00 0.00 84 1014.6
20260506142748 55 181 0.0 0.0 0.00 0.00 0.00 84 1014.9
20260506142245 55 175 0.0 0.0 0.00 0.00 0.00 84 1014.4
20260506141743 55 176 0.0 0.0 0.00 0.00 0.00 84 1014.6
20260506141241 55 193 0.0 0.0 0.00 0.00 0.00 84 1014.5
20260506140738 55 140 0.0 0.9 0.00 0.00 0.00 84 1014.5
20260506140235 55 191 0.0 0.0 0.00 0.00 0.00 84 1014.6
20260506135732 55 200 0.0 0.0 0.00 0.00 0.00 84 1014.2
20260506135228 55 189 0.0 0.0 0.00 0.00 0.00 84 1014.1
20260506134725 55 188 0.0 0.0 0.00 0.00 0.00 84 1013.9
20260506134222 55 174 1.7 1.7 0.00 0.00 0.00 83 1014.2
20260506133719 56 189 0.0 0.0 0.00 0.00 0.00 83 1014.1
20260506133215 56 188 0.0 0.0 0.00 0.00 0.00 83 1014.1
20260506132713 55 192 0.0 0.0 0.00 0.00 0.00 83 1014.0
20260506132209 56 198 0.0 0.0 0.00 0.00 0.00 83 1013.9
20260506131708 56 195 0.0 0.0 0.00 0.00 0.00 82 1013.4
20260506131203 56 187 0.0 0.0 0.00 0.00 0.00 83 1013.4
20260506130700 56 176 0.0 0.0 0.00 0.00 0.00 82 1013.4
20260506130157 56 176 0.0 0.9 0.00 0.00 0.00 82 1013.7
20260506125655 56 187 0.0 0.0 0.00 0.00 0.00 81 1013.6
20260506125153 56 190 0.0 0.0 0.00 0.00 0.00 82 1013.6
20260506124650 56 192 0.0 0.0 0.00 0.00 0.00 81 1013.4
20260506124149 57 194 0.0 0.0 0.00 0.00 0.00 81 1013.2
20260506123646 57 187 0.0 0.0 0.00 0.00 0.00 81 1013.0
20260506123144 57 186 0.0 0.0 0.00 0.00 0.00 80 1013.2
20260506122641 57 187 0.0 0.0 0.00 0.00 0.00 81 1013.0
20260506122138 57 206 0.0 0.0 0.00 0.00 0.00 80 1012.9
20260506121636 57 183 0.0 0.0 0.00 0.00 0.00 80 1012.8
20260506121132 57 196 0.0 0.0 0.00 0.00 0.00 80 1012.7
20260506120630 57 173 0.0 0.0 0.00 0.00 0.00 79 1013.1
20260506120127 57 189 0.9 0.9 0.00 0.00 0.00 80 1013.0
20260506115626 57 164 0.0 0.0 0.00 0.00 0.00 79 1012.9
20260506115123 57 197 0.0 0.0 0.00 0.00 0.00 79 1012.7
20260506114620 57 201 0.0 0.0 0.00 0.00 0.00 79 1012.7
20260506114118 57 185 0.0 0.0 0.00 0.00 0.00 80 1012.4
20260506113616 57 189 0.0 0.0 0.00 0.00 0.00 79 1012.3
20260506113113 57 197 0.0 0.0 0.00 0.00 0.00 79 1012.0
20260506112610 58 193 0.0 0.0 0.00 0.00 0.00 78 1012.2
20260506112107 58 192 0.0 0.0 0.00 0.00 0.00 79 1012.1
20260506111605 58 200 0.0 0.0 0.00 0.00 0.00 78 1012.1
20260506111102 58 188 0.0 0.0 0.00 0.00 0.00 78 1012.0
20260506110600 58 189 0.0 0.0 0.00 0.00 0.00 79 1011.8
20260506110057 58 189 0.0 0.0 0.00 0.00 0.00 81 1011.7
20260506105553 58 189 0.0 0.0 0.00 0.00 0.00 78 1011.7
20260506105050 58 188 0.0 0.0 0.00 0.00 0.00 80 1011.7
20260506104548 59 190 0.0 0.0 0.00 0.00 0.00 80 1011.4
20260506104046 59 177 0.0 0.0 0.00 0.00 0.00 79 1011.3
20260506103543 59 189 0.0 0.9 0.00 0.00 0.00 79 1011.2
20260506103039 59 184 0.0 0.0 0.00 0.00 0.00 81 1011.3
20260506102538 59 184 0.0 0.9 0.00 0.00 0.00 79 1011.1
20260506102035 59 172 0.0 0.0 0.00 0.00 0.00 78 1010.9
20260506101531 59 179 0.0 0.0 0.00 0.00 0.00 80 1010.9
20260506101028 59 177 0.0 0.0 0.00 0.00 0.00 79 1010.9
20260506100527 59 193 0.0 0.0 0.00 0.00 0.00 78 1010.5
20260506100025 59 173 0.0 0.0 0.00 0.00 0.00 79 1010.7
20260506095523 60 182 0.0 0.0 0.00 0.00 0.00 80 1010.8
20260506095019 60 183 0.0 0.0 0.00 0.00 0.00 81 1010.7
20260506094517 60 185 0.0 0.0 0.00 0.00 0.00 77 1010.4
20260506094015 60 185 0.0 0.0 0.00 0.00 0.00 76 1010.7
20260506093513 60 185 0.0 0.0 0.00 0.00 0.00 77 1010.8
20260506093010 61 182 0.0 0.0 0.00 0.00 0.00 75 1010.7
20260506092508 61 183 0.0 0.0 0.00 0.00 0.00 75 1010.5
20260506092004 61 181 0.0 0.0 0.00 0.00 0.00 76 1010.6
20260506091503 61 182 0.0 0.9 0.00 0.00 0.00 76 1010.5
20260506090959 61 187 0.0 0.0 0.00 0.00 0.00 77 1010.7
20260506090458 61 184 0.0 0.0 0.00 0.00 0.00 77 1010.5
20260506085953 61 183 0.0 0.0 0.00 0.00 0.00 77 1010.6
20260506085450 61 190 0.0 0.0 0.00 0.00 0.00 76 1010.4
20260506084946 62 193 0.0 0.0 0.00 0.00 0.00 77 1010.4
20260506084443 62 188 0.0 0.0 0.00 0.00 0.00 77 1010.2
20260506083940 62 188 0.0 0.0 0.00 0.00 0.00 78 1010.0
20260506083437 62 188 0.0 0.0 0.00 0.00 0.00 77 1010.1
20260506082934 62 195 0.0 0.0 0.00 0.00 0.00 77 1009.9
20260506082431 62 188 0.0 0.0 0.00 0.00 0.00 77 1009.7
20260506081927 62 186 0.0 0.0 0.00 0.00 0.00 77 1009.6
20260506081425 62 194 0.0 0.0 0.00 0.00 0.00 77 1009.8
20260506080922 62 190 0.0 0.0 0.00 0.00 0.00 77 1009.7
20260506080419 62 195 0.0 0.0 0.00 0.00 0.00 77 1009.7
20260506073403 63 190 0.0 0.0 0.00 0.00 0.00 77 1010.0
20260506072900 63 182 0.0 0.0 0.00 0.00 0.00 77 1010.2
20260506072357 63 191 0.0 0.0 0.00 0.00 0.00 77 1010.1
20260506071855 63 201 0.0 0.0 0.00 0.00 0.00 77 1009.9
20260506071353 63 195 0.0 0.0 0.00 0.00 0.00 77 1010.0
20260506070849 63 180 0.0 0.0 0.00 0.00 0.00 77 1010.0
20260506070347 63 187 0.0 0.0 0.00 0.00 0.00 77 1009.9
20260506062324 64 190 0.0 0.0 0.00 0.00 0.00 78 1009.9
20260506061820 64 194 0.0 0.0 0.00 0.00 0.00 78 1009.9
20260506061317 64 196 0.0 0.0 0.00 0.00 0.00 77 1009.9
20260506060815 64 187 0.0 0.0 0.00 0.00 0.00 77 1010.0
20260506060313 64 145 0.0 0.0 0.00 0.00 0.00 77 1009.9
20260506051244 66 186 0.0 0.0 0.00 0.00 0.00 78 1009.6
20260506050742 67 182 0.0 0.0 0.00 0.00 0.00 78 1009.5
20260506050239 67 180 0.0 0.9 0.00 0.00 0.00 78 1009.5
20260506044730 68 118 0.0 0.0 0.00 0.00 0.00 78 1009.5
20260506044227 68 175 0.0 0.0 0.00 0.00 0.00 77 1009.5
20260506043725 68 170 0.0 0.9 0.00 0.00 0.00 79 1009.6
20260506043222 69 189 0.0 0.0 0.00 0.00 0.00 78 1009.4
20260506042721 69 184 0.0 0.9 0.00 0.00 0.00 79 1009.0
20260506042219 69 162 0.0 0.0 0.00 0.00 0.00 79 1009.1
20260506041717 69 191 0.0 0.0 0.00 0.00 0.00 80 1008.9
20260506041214 70 195 0.0 0.0 0.00 0.00 0.00 80 1008.8
20260506040711 70 179 0.0 0.0 0.00 0.00 0.00 80 1008.8
20260506040208 70 185 0.0 0.0 0.00 0.00 0.00 80 1008.5
20260506035704 70 191 0.0 0.0 0.00 0.00 0.00 81 1008.9
20260506035201 70 186 0.0 0.0 0.00 0.00 0.00 81 1008.5
20260506034658 70 186 0.0 0.0 0.00 0.00 0.00 80 1008.8
20260506034155 71 185 0.0 0.0 0.00 0.00 0.00 81 1008.5
20260506033653 71 185 0.0 0.0 0.00 0.00 0.00 81 1008.3
20260506033149 71 184 0.0 0.0 0.00 0.00 0.00 81 1008.3
20260506032646 71 193 0.0 0.0 0.00 0.00 0.00 81 1008.4
20260506032143 71 178 0.0 0.0 0.00 0.00 0.00 81 1008.2
20260506031640 71 183 0.0 0.0 0.00 0.00 0.00 80 1008.0
20260506031137 71 186 0.0 0.0 0.00 0.00 0.00 82 1008.1
20260506030636 70 189 0.0 0.0 0.00 0.00 0.00 83 1008.1
20260506030132 70 192 0.0 0.0 0.00 0.00 0.00 87 1007.9
20260506025629 70 189 0.0 0.0 0.00 0.00 0.00 87 1007.5
20260506025125 70 197 0.0 0.0 0.00 0.00 0.00 87 1007.6
20260506024623 70 195 0.0 0.0 0.00 0.00 0.00 88 1007.5
20260506024119 70 192 0.0 0.0 0.00 0.00 0.00 89 1007.5
20260506023615 71 185 0.0 0.0 0.00 0.00 0.00 90 1007.1
20260506023113 71 193 0.0 0.0 0.00 0.00 0.00 90 1007.0
20260506022610 71 193 0.0 0.0 0.00 0.00 0.00 90 1006.8
20260506022107 71 193 0.0 0.0 0.00 0.00 0.00 90 1006.4
20260506021605 71 192 0.0 0.0 0.00 0.00 0.00 89 1006.2
20260506021102 71 189 0.0 0.0 0.00 0.00 0.00 88 1006.4
20260506020559 71 192 0.0 0.0 0.00 0.00 0.00 89 1006.4
20260506020057 72 192 0.0 0.0 0.00 0.00 0.00 88 1006.3
20260506015554 72 192 0.0 0.0 0.00 0.00 0.00 89 1006.0
20260506015051 72 196 0.0 0.0 0.00 0.00 0.00 88 1006.3
20260506014548 72 202 0.0 0.0 0.00 0.00 0.00 88 1006.3
20260506014043 73 200 0.0 0.0 0.00 0.00 0.00 88 1006.0
20260506013542 73 195 0.0 0.0 0.00 0.00 0.00 88 1006.0
20260506013039 74 183 0.0 0.0 0.00 0.00 0.00 92 1005.7
20260506012535 75 190 0.0 0.0 0.00 0.00 0.00 94 1006.0
20260506012032 75 188 0.0 0.0 0.00 0.00 0.00 95 1006.1
20260506011530 76 188 0.0 0.0 0.00 0.00 0.00 95 1005.9
20260506011025 76 203 0.0 0.0 0.00 0.00 0.00 95 1005.5
20260506010525 76 186 0.0 0.0 0.00 0.00 0.00 94 1005.5
20260506010021 76 188 0.0 0.0 0.00 0.00 0.00 94 1005.1
20260506005518 76 186 0.0 0.0 0.00 0.00 0.00 93 1005.2
20260506005014 76 186 0.0 0.0 0.00 0.00 0.00 93 1005.4
20260506004512 77 185 0.0 0.0 0.00 0.00 0.00 93 1005.3
20260506004008 77 186 0.0 0.0 0.00 0.00 0.00 92 1005.2
20260506003504 77 177 0.0 0.0 0.00 0.00 0.00 92 1004.9
20260506003000 78 191 0.0 0.0 0.00 0.00 0.00 91 1005.2
20260506002457 78 151 0.0 0.9 0.00 0.00 0.00 90 1005.0
20260506001952 79 183 0.0 0.0 0.00 0.00 0.00 88 1005.1
20260506001449 80 182 0.0 0.0 0.00 0.00 0.00 87 1005.2
20260506000946 82 199 0.0 0.0 0.00 0.00 0.00 83 1005.0
20260506000445 82 177 0.0 0.0 0.00 0.00 0.00 78 1004.8
20260505235941 83 196 0.0 0.0 0.00 0.00 0.00 75 1004.6
20260505235439 83 240 0.0 0.9 0.00 0.00 0.00 75 1004.3
20260505234935 83 210 0.0 0.0 0.00 0.00 0.00 74 1004.1
20260505234433 84 181 0.0 0.0 0.00 0.00 0.00 73 1004.2
20260505233929 84 184 0.0 0.0 0.00 0.00 0.00 73 1004.1
20260505233427 84 196 0.0 0.0 0.00 0.00 0.00 74 1004.2
20260505232925 84 189 0.0 0.0 0.00 0.00 0.00 73 1004.2
20260505232422 85 208 0.0 0.0 0.00 0.00 0.00 72 1004.1
20260505231919 85 193 0.0 0.0 0.00 0.00 0.00 71 1004.0
20260505231416 85 171 0.0 0.9 0.00 0.00 0.00 71 1004.3
20260505230914 86 175 0.0 0.0 0.00 0.00 0.00 70 1004.3
20260505230412 86 195 0.9 0.9 0.00 0.00 0.00 69 1004.0
20260505225908 86 190 0.0 0.9 0.00 0.00 0.00 68 1004.0
20260505225406 87 190 0.0 0.0 0.00 0.00 0.00 69 1003.7
20260505224906 87 201 0.0 0.0 0.00 0.00 0.00 68 1003.8
20260505224404 87 183 0.0 0.0 0.00 0.00 0.00 69 1003.8
20260505223900 86 201 0.0 0.0 0.00 0.00 0.00 69 1003.9
20260505223357 87 175 0.0 0.0 0.00 0.00 0.00 68 1003.8
20260505222853 87 199 0.0 0.0 0.00 0.00 0.00 68 1003.6
20260505222350 87 196 0.9 1.7 0.00 0.00 0.00 68 1003.7
20260505221847 87 192 0.0 0.0 0.00 0.00 0.00 68 1003.7
20260505221343 87 202 0.0 0.0 0.00 0.00 0.00 66 1003.8
20260505220840 87 189 1.7 1.7 0.00 0.00 0.00 63 1003.7
20260505220337 87 178 0.0 0.9 0.00 0.00 0.00 65 1003.7
20260505215835 87 190 0.0 0.0 0.00 0.00 0.00 67 1003.5
20260505215333 87 185 0.9 0.9 0.00 0.00 0.00 65 1003.8
20260505214831 87 202 0.0 0.0 0.00 0.00 0.00 67 1003.8
20260505214328 87 216 0.0 0.0 0.00 0.00 0.00 66 1003.8
20260505213825 87 197 0.0 0.0 0.00 0.00 0.00 66 1003.8
20260505213323 87 195 0.9 0.9 0.00 0.00 0.00 65 1004.0
20260505212819 87 200 0.0 0.0 0.00 0.00 0.00 65 1003.9
20260505212316 87 208 0.0 0.0 0.00 0.00 0.00 67 1004.1
20260505211812 87 173 0.0 0.9 0.00 0.00 0.00 65 1004.1
20260505211310 88 195 0.0 0.9 0.00 0.00 0.00 64 1004.1
20260505210806 88 188 0.0 0.9 0.00 0.00 0.00 63 1004.4
20260505210303 87 213 0.0 0.0 0.00 0.00 0.00 65 1004.2
20260505205800 87 197 0.0 0.0 0.00 0.00 0.00 67 1004.3
20260505205259 87 177 0.0 0.9 0.00 0.00 0.00 67 1004.4
20260505204755 87 209 0.0 0.0 0.00 0.00 0.00 65 1004.4
20260505204253 87 188 0.0 0.0 0.00 0.00 0.00 64 1004.5
20260505203749 87 215 0.0 0.9 0.00 0.00 0.00 63 1004.7
20260505203246 87 158 0.9 1.7 0.00 0.00 0.00 63 1004.5
20260505202742 87 204 0.0 0.0 0.00 0.00 0.00 63 1004.7
20260505202238 87 158 0.9 0.9 0.00 0.00 0.00 64 1004.7
20260505201736 87 200 0.0 0.0 0.00 0.00 0.00 68 1004.8
20260505201233 86 174 0.9 0.9 0.00 0.00 0.00 65 1004.9
20260505200731 86 204 0.0 0.9 0.00 0.00 0.00 65 1005.0
20260505200228 86 182 0.0 0.9 0.00 0.00 0.00 67 1005.0